Location: *
(45.8589°N, 4.7139°E)
Time: 23:44:14
(UTC+00:00)

Cosmos 2278 - Pass Details

Date: 09 April 2020
Orbit: 840 x 853 km, 71.1° (Epoch: 02 June)

Event Time Altitude Azimuth Distance (km) Brightness Sun altitude
Rises 22:07:29 0° 330° (NNW) 3,405 8.0 -32.1°
Reaches altitude 10° 22:09:58 10° 326° (NNW) 2,468 7.0 -32.3°
Enters shadow 22:14:13 46° 295° (WNW) 1,123 4.5 -32.6°
